FENGYUN 1C DEB, 29894

Orbit data source: Space-Track

FENGYUN 1C DEB, 29894 is space debris in SSO originally from a launch on Mon, 10 May 1999 UTC launched from the Taiyaun Space Center, China (TSC). Fengyun 1C debris stems from the Chinese weather satellite Fengyun-1C, which was intentionally destroyed by a Chinese anti-satellite missile in 2007. This event dramatically increased the amount of space debris, with thousands of trackable fragments posing hazards to satellites and human spaceflight. The Fengyun 1C debris cloud has become a focal point in discussions about space sustainability and the need for international regulations to prevent the creation of new debris.

Loading next visibility...
Identifier
29894, 1999-025GQ
Orbit
SSO
Country
Flag of CNCN / PRC
Related business
Manufacturer
Unknown
Mission
Spacecraft
Bus & Motor
Unknown
Mass
Unknown
Launch date (UTC)
1999-05-10 (27 years ago)
Launch vehicle
Unknown
Launch site
Taiyaun Space Center, China (TSC)
Object type
Payload
Rocket body
Debris
Shape & HBR
Unknown shape, 0.1 m
Radar Cross Section
Medium (>0.1 m² and <1 m²)

Expand to show TLE details & history
Last TLE update: 15 hours ago

TLE from 15 hours ago
0 FENGYUN 1C DEB
1 29894U 99025GQ  26256.82213755  .00000225  00000-0  22861-3 0  9992
2 29894  99.4566 316.9587 0168263  39.2988  23.8154 13.81270217988748
Epoch: 2026-09-13T19:43Z
TLE epoch observation values (Epoch: 2026-09-13T19:43:52.684Z)
Latitude
62.45429°
Longitude
9.65679°
Altitude
857.405 km
Speed
7.487 km/s
True Right ascension
19h 53m 45s
True Declination
62° 18' 54"
Sunlit
Object was in daylight at epoch
Visualization orbit readout
Latitude
Unknown
Longitude
Unknown
Altitude
Unknown
Speed
Unknown
Apparent Right ascension
Unknown
Apparent Declination
Unknown
Sunlit
N/A
Visualization observer readout
Local Sidereal Time
03:09:49
Azimuth
Unknown
Elevation
Unknown
Doppler factor
Unknown
Orbital elements
Apogee altitude
1,080.048 km
Perigee altitude
833.214 km
Semi-major axis
7,334.768 km
Eccentricity
0.01683
Inclination
99.4566°
RAAN
316.9587°
Arg. of periapsis
39.2988°
True anomaly
24.60921°
Mean anomaly
23.8154°
Eccentric anomaly
24.21076°
Mean motion
3.45512 °/min
Orbital period
104.19 mins
BSTAR
0.00022861
Loading maneuver chart data...
Computing Atmospheric mass density...

Documentation

Showing up to 5 results
|